Location: Unspecified
(0.0000°N, 0.0000°E)
Time: 13:31:08
(UTC+00:00)

Vanguard 1 - Pass Details

Date: 16 December 2017
Orbit: 650 x 3833 km, 34.2° (Epoch: 22 April)

Event Time Altitude Azimuth Distance (km) Brightness Sun altitude
Rises 07:00:43 0° 252° (WSW) 7,199 14.0 14.9°
Reaches altitude 10° 07:05:30 10° 257° (WSW) 6,467 13.8 16.0°
Maximum altitude 07:26:37 47° 325° (NW) 4,553 13.3 20.8°
Drops below altitude 10° 07:46:27 10° 34° (NE) 6,026 14.3 25.3°
Sets 07:50:49 0° 41° (NE) 6,690 14.5 26.2°
